[[{"header":{"parameterUnit":"m.s-1","parameterCategory":1,"la1":30.2991,"la2":30.254,"lo1":-89.0895,"lo2":-89.0444,"dy":0.0017,"dx":0.0017,"nx":28,"ny":28,"refTime":"2025-04-15T03:00:00:Z","depth":0,"parameterNumber":2,"parameterNumberName":"U-component_of_WINDS"},"data":[0,0,0,0,0,0,0,0,0,0,0,0,0,0,0,0,0,0,0,0,0,0,0,0,0,0,0,0,0,0,0,0,0,0,0,0,0,0,0,0,0,0,0,0,0,0,0,0,0,0,0,0,0,0,0,0,0,0,-0.4487,-0.4488,0,-0.4579,-0.458,-0.4581,-0.4584,-0.4582,-0.4581,-0.458,-0.4678,-0.4681,-0.4685,0,0,0,0,0,0,0,0,0,0,0,0,0,-0.4317,-0.432,-0.4487,-0.4488,-0.449,-0.4579,-0.458,-0.4581,-0.4584,-0.4582,-0.4581,-0.458,-0.4677,-0.4681,-0.4685,0,0,0,0,0,0,0,0,0,0,0,0,0,-0.4398,-0.4321,-0.4487,-0.4501,-0.4504,-0.4579,-0.458,-0.4582,-0.4584,-0.4582,-0.4581,-0.4579,-0.4675,-0.4681,-0.4686,-0.4754,0,0,-0.4703,-0.4705,0,0,0,0,0,0,0,0,-0.4394,-0.4404,-0.4498,-0.45,-0.4503,-0.4568,-0.4556,-0.464,-0.4584,-0.4554,-0.458,-0.4578,-0.4643,-0.4651,-0.4672,-0.4759,-0.4763,-0.4703,-0.4707,-0.4709,-0.4711,0,0,0,0,0,0,0,-0.4388,-0.4401,-0.4524,-0.4499,-0.4503,-0.4504,-0.4514,-0.4572,-0.4607,-0.4556,-0.4557,-0.4567,-0.4644,-0.4667,-0.4674,-0.4764,-0.4703,-0.4708,-0.4711,-0.4714,-0.4912,-0.4914,0,0,0,0,0,0,-0.4379,-0.4396,-0.4521,-0.4526,-0.4443,-0.4509,-0.4519,-0.4549,-0.4606,-0.4613,-0.4569,-0.4567,-0.4658,-0.4668,-0.4678,-0.4762,-0.4709,-0.4714,-0.4717,-0.491,-0.4912,-0.4915,0,0,0,0,0,0,-0.4375,-0.439,-0.4517,-0.4461,-0.4477,-0.4513,-0.4547,-0.4552,-0.4574,-0.4616,-0.4622,-0.4585,-0.4657,-0.467,-0.4735,-0.4766,-0.4717,-0.4722,-0.4908,-0.4911,-0.4914,-0.4931,0,0,0,0,0,0,-0.437,-0.4389,-0.4414,-0.4462,-0.448,-0.4572,-0.4548,-0.4555,-0.4583,-0.4582,-0.4633,-0.464,-0.4657,-0.4727,-0.474,-0.4772,-0.4726,-0.4905,-0.4909,-0.4913,-0.4928,-0.4934,-0.4939,0,0,0,0,0,-0.4364,-0.4416,-0.4416,-0.4431,-0.4513,-0.4574,-0.4584,-0.4602,-0.4586,-0.4613,-0.4639,-0.4638,-0.4759,-0.4733,-0.4749,-0.4783,-0.4903,-0.4908,-0.4912,-0.4925,-0.4933,-0.4939,0,0,0,0,0,0,-0.4373,-0.4423,-0.4423,-0.4491,-0.4528,-0.4574,-0.4608,-0.461,-0.4653,-0.465,-0.4671,-0.4683,-0.4747,-0.4771,-0.4741,-0.4852,-0.483,-0.4837,-0.4834,-0.4842,-0.4847,-0.4841,-0.473,0,0,0,0,0,-0.4383,-0.4427,-0.4468,-0.4525,-0.4543,-0.4572,-0.4599,-0.4609,-0.4649,-0.4665,-0.4696,-0.4735,-0.4782,-0.4813,-0.4859,-0.493,-0.4942,-0.4961,-0.4967,-0.4971,-0.4979,-0.5019,-0.5028,-0.4929,-0.4929,-0.4929,0,0,-0.4404,-0.4436,-0.4463,-0.4527,-0.4557,-0.4603,-0.4585,-0.4635,-0.467,-0.4673,-0.4736,-0.476,-0.4805,-0.4874,-0.4906,-0.4896,-0.5008,-0.4977,-0.498,-0.4985,-0.5025,-0.5034,-0.5042,-0.4932,-0.4932,-0.4931,0,0,-0.4466,-0.4494,-0.4545,-0.4574,-0.4619,-0.4638,-0.465,-0.4695,-0.4711,-0.4774,-0.4778,-0.482,-0.49,-0.4932,-0.4959,-0.5032,-0.5034,-0.5046,-0.5078,-0.5117,-0.5125,-0.5132,-0.5159,-0.5168,-0.5053,-0.5053,-0.5053,0,-0.4487,-0.4555,-0.4571,-0.462,-0.4649,-0.4652,-0.4704,-0.4732,-0.479,-0.481,-0.4798,-0.4898,-0.4929,-0.5006,-0.5023,-0.5045,-0.506,-0.5042,-0.5122,-0.5129,-0.5136,-0.5162,-0.5172,-0.5054,-0.5054,-0.5054,-0.5054,0,-0.4579,-0.4627,-0.4662,-0.4717,-0.4749,-0.48,-0.4824,-0.4855,-0.4862,-0.4882,-0.4947,-0.4983,-0.5036,-0.5055,-0.5063,-0.5133,-0.5126,-0.5117,-0.5096,-0.5147,-0.5172,-0.5182,-0.5056,-0.5056,-0.5055,-0.5055,0,0,-0.4652,-0.4712,-0.4726,-0.475,-0.4799,-0.4837,-0.4887,-0.4938,-0.4965,-0.5004,-0.5048,-0.5115,-0.5108,-0.5138,-0.5149,-0.5184,-0.524,-0.5171,-0.5173,-0.5184,-0.5321,-0.5328,-0.5339,-0.524,-0.5242,-0.5244,-0.5318,0,-0.472,-0.4809,-0.4824,-0.4903,-0.4947,-0.495,-0.4995,-0.503,-0.505,-0.5092,-0.5114,-0.5162,-0.5148,-0.5166,-0.52,-0.5226,-0.5268,-0.5221,-0.5283,-0.5285,-0.5273,-0.5352,-0.536,-0.5428,-0.5327,-0.5329,-0.533,0,-0.4812,-0.4853,-0.4935,-0.4978,-0.4997,-0.5037,-0.5084,-0.5123,-0.5164,-0.5176,-0.5209,-0.5216,-0.527,-0.5245,-0.532,-0.5287,-0.5313,-0.533,-0.5333,-0.5341,-0.5312,-0.5364,-0.545,-0.546,-0.5346,-0.5344,-0.5343,0,-0.4858,-0.4933,-0.4993,-0.5013,-0.5064,-0.5092,-0.5115,-0.5153,-0.5182,-0.5224,-0.5244,-0.5291,-0.5318,-0.5355,-0.5375,-0.5355,-0.5449,-0.5425,-0.5462,-0.5462,-0.5484,-0.5483,-0.5577,-0.5498,-0.5498,-0.5497,-0.5497,0,-0.4934,-0.4985,-0.5014,-0.5051,-0.5108,-0.5124,-0.5181,-0.5203,-0.5237,-0.5279,-0.5284,-0.5323,-0.5347,-0.539,-0.5406,-0.5466,-0.5478,-0.549,-0.5494,-0.5491,-0.549,-0.551,-0.5506,-0.55,-0.55,-0.5499,-0.5499,0,-0.4996,-0.5017,-0.5082,-0.5124,-0.5136,-0.5176,-0.5213,-0.5249,-0.5268,-0.5321,-0.5335,-0.5366,-0.5417,-0.544,-0.5503,-0.5514,-0.5583,-0.5583,-0.5569,-0.5571,-0.5607,-0.5604,-0.5719,-0.5735,-0.5644,-0.5645,-0.5645,0,-0.5044,-0.5083,-0.5129,-0.5157,-0.518,-0.5224,-0.5254,-0.5272,-0.5302,-0.5351,-0.5381,-0.5432,-0.5473,-0.5555,-0.5584,-0.5632,-0.5634,-0.5671,-0.5642,-0.5637,-0.5636,-0.5635,-0.5639,-0.5677,-0.5678,-0.5679,-0.5679,0,-0.5127,-0.5136,-0.5177,-0.5223,-0.5258,-0.5295,-0.5331,-0.5354,-0.5377,-0.5412,-0.5463,-0.5495,-0.5559,-0.5609,-0.5659,-0.5684,-0.5686,-0.5688,-0.5699,-0.5697,-0.5688,-0.5695,-0.5585,-0.5686,-0.5685,-0.5685,-0.5684,-0.5684,-0.5185,-0.522,-0.5257,-0.5304,-0.5333,-0.5366,-0.5402,-0.5425,-0.5468,-0.552,-0.5528,-0.5583,-0.5622,-0.5689,-0.5716,-0.576,-0.5751,-0.5767,-0.5772,-0.5776,-0.5779,-0.5679,-0.5769,-0.5768,-0.5768,-0.5768,-0.5768,0,-0.527,-0.5294,-0.5336,-0.5386,-0.5423,-0.5419,-0.5459,-0.5491,-0.5538,-0.5574,-0.5614,-0.5673,-0.5722,-0.5754,-0.5804,-0.5833,-0.5835,-0.5846,-0.5845,-0.585,-0.5783,-0.5769,-0.5843,-0.5843,-0.5843,-0.5843,-0.5843,-0.5843,-0.5319,-0.5378,-0.539,-0.5464,-0.5487,-0.554,-0.5563,-0.5595,-0.5623,-0.5689,-0.5729,-0.5748,-0.5783,-0.5835,-0.588,-0.5888,-0.5907,-0.5918,-0.5926,-0.5863,-0.5855,-0.5848,-0.5835,-0.5921,-0.5921,-0.599,-0.5991,-0.5991]},{"header":{"parameterUnit":"m.s-1","parameterCategory":1,"la1":30.2991,"la2":30.254,"lo1":-89.0895,"lo2":-89.0444,"dy":0.0017,"dx":0.0017,"nx":28,"ny":28,"refTime":"2025-04-15T03:00:00:Z","depth":0,"parameterNumber":3,"parameterNumberName":"V-component_of_WINDS"},"data":[0,0,0,0,0,0,0,0,0,0,0,0,0,0,0,0,0,0,0,0,0,0,0,0,0,0,0,0,0,0,0,0,0,0,0,0,0,0,0,0,0,0,0,0,0,0,0,0,0,0,0,0,0,0,0,0,0,0,-5.0404,-5.0405,0,-5.0469,-5.047,-5.0471,-5.0371,-5.0367,-5.0364,-5.0361,-5.0424,-5.0429,-5.0434,0,0,0,0,0,0,0,0,0,0,0,0,0,-5.019,-5.0194,-5.0404,-5.0405,-5.0406,-5.0469,-5.047,-5.0471,-5.0371,-5.0367,-5.0363,-5.0359,-5.0423,-5.0429,-5.0435,0,0,0,0,0,0,0,0,0,0,0,0,0,-5.0272,-5.0196,-5.0404,-5.0364,-5.0361,-5.0469,-5.047,-5.0471,-5.0372,-5.0367,-5.0362,-5.0357,-5.0421,-5.0428,-5.0435,-5.0585,0,0,-5.0458,-5.0461,0,0,0,0,0,0,0,0,-5.0267,-5.028,-5.0369,-5.0367,-5.0364,-5.0407,-5.0418,-5.0509,-5.0374,-5.0368,-5.036,-5.0354,-5.0423,-5.0429,-5.0453,-5.0588,-5.0591,-5.0459,-5.0463,-5.0466,-5.0468,0,0,0,0,0,0,0,-5.0262,-5.0276,-5.043,-5.037,-5.0367,-5.0341,-5.0347,-5.0435,-5.0423,-5.0368,-5.0361,-5.037,-5.042,-5.0446,-5.0454,-5.0592,-5.0458,-5.0465,-5.047,-5.0472,-5.0851,-5.0857,0,0,0,0,0,0,-5.0261,-5.0272,-5.0427,-5.0431,-5.0302,-5.0349,-5.0356,-5.0398,-5.0422,-5.0421,-5.0374,-5.0365,-5.0436,-5.0445,-5.0456,-5.0632,-5.0466,-5.0473,-5.0477,-5.0846,-5.0853,-5.0859,0,0,0,0,0,0,-5.0257,-5.0276,-5.0425,-5.035,-5.0367,-5.0359,-5.0407,-5.0402,-5.0428,-5.0427,-5.0424,-5.0403,-5.0432,-5.0445,-5.0553,-5.0633,-5.0476,-5.0483,-5.0839,-5.0848,-5.0856,-5.0987,0,0,0,0,0,0,-5.0251,-5.0275,-5.0333,-5.0352,-5.0371,-5.0523,-5.0411,-5.0407,-5.0441,-5.043,-5.0454,-5.0452,-5.0429,-5.0543,-5.0561,-5.064,-5.0489,-5.0832,-5.0843,-5.0853,-5.0975,-5.0998,-5.1018,0,0,0,0,0,-5.0244,-5.0367,-5.0336,-5.0356,-5.0444,-5.0528,-5.0539,-5.0511,-5.0448,-5.0505,-5.0505,-5.0452,-5.0621,-5.0555,-5.0574,-5.0657,-5.0827,-5.084,-5.0852,-5.0965,-5.0994,-5.1018,0,0,0,0,0,0,-5.0356,-5.0369,-5.0335,-5.0468,-5.0498,-5.0511,-5.0583,-5.0542,-5.0589,-5.0576,-5.0538,-5.0544,-5.0661,-5.0669,-5.0595,-5.0802,-5.0713,-5.073,-5.0793,-5.082,-5.0841,-5.0837,-5.0495,0,0,0,0,0,-5.0397,-5.0465,-5.0472,-5.0588,-5.0605,-5.0592,-5.0627,-5.0603,-5.0632,-5.0644,-5.0651,-5.068,-5.074,-5.078,-5.0835,-5.0975,-5.0979,-5.1042,-5.1063,-5.1081,-5.1096,-5.1171,-5.1199,-5.09,-5.09,-5.09,0,0,-5.048,-5.0495,-5.0541,-5.0611,-5.0631,-5.0702,-5.0603,-5.0682,-5.0734,-5.0655,-5.0759,-5.0765,-5.0795,-5.092,-5.0975,-5.0931,-5.1179,-5.1097,-5.1111,-5.1117,-5.1187,-5.1215,-5.124,-5.0909,-5.0907,-5.0906,0,0,-5.0669,-5.0688,-5.0787,-5.081,-5.0842,-5.0832,-5.0856,-5.0875,-5.0877,-5.098,-5.0922,-5.0982,-5.1086,-5.111,-5.1136,-5.1333,-5.1286,-5.1352,-5.1465,-5.1538,-5.1562,-5.1582,-5.1653,-5.1678,-5.1367,-5.1367,-5.1367,0,-5.0769,-5.0875,-5.0843,-5.0927,-5.0959,-5.0891,-5.099,-5.1013,-5.1062,-5.1085,-5.1034,-5.1163,-5.1178,-5.1308,-5.1356,-5.1379,-5.1404,-5.1349,-5.1561,-5.1581,-5.16,-5.1667,-5.1693,-5.1375,-5.1374,-5.1373,-5.1373,0,-5.0996,-5.1071,-5.1146,-5.1196,-5.1236,-5.1327,-5.1308,-5.1352,-5.1324,-5.1319,-5.1424,-5.144,-5.1497,-5.1525,-5.1498,-5.1651,-5.1622,-5.1567,-5.1477,-5.1637,-5.1699,-5.1724,-5.1386,-5.1384,-5.1381,-5.1379,0,0,-5.1259,-5.1289,-5.1318,-5.1339,-5.1369,-5.1426,-5.1513,-5.1569,-5.1608,-5.1643,-5.1715,-5.1804,-5.1753,-5.1782,-5.1757,-5.1821,-5.1976,-5.1757,-5.1757,-5.1798,-5.2145,-5.2187,-5.2217,-5.1944,-5.1949,-5.1953,-5.2142,0,-5.1448,-5.1601,-5.1573,-5.1721,-5.1789,-5.1725,-5.1801,-5.1827,-5.1824,-5.188,-5.1876,-5.1941,-5.1868,-5.1885,-5.1946,-5.1944,-5.2045,-5.193,-5.201,-5.2014,-5.2006,-5.225,-5.2294,-5.2473,-5.2166,-5.2171,-5.2173,0,-5.1689,-5.1734,-5.1889,-5.1908,-5.1936,-5.2005,-5.2054,-5.2109,-5.2136,-5.213,-5.2162,-5.2125,-5.221,-5.2118,-5.2235,-5.2158,-5.2189,-5.2193,-5.2199,-5.2206,-5.2104,-5.2264,-5.2529,-5.2556,-5.2211,-5.2208,-5.2206,0,-5.1866,-5.1965,-5.2071,-5.2091,-5.2116,-5.2166,-5.2178,-5.2201,-5.2236,-5.2278,-5.2301,-5.2352,-5.2381,-5.2421,-5.2397,-5.2333,-5.2519,-5.2425,-5.2515,-5.2516,-5.2558,-5.2556,-5.2833,-5.2577,-5.2577,-5.2576,-5.2576,0,-5.208,-5.2178,-5.215,-5.2216,-5.2322,-5.2289,-5.2395,-5.24,-5.242,-5.2484,-5.2431,-5.2492,-5.2457,-5.2515,-5.2497,-5.2596,-5.2609,-5.2606,-5.26,-5.2611,-5.2612,-5.2631,-5.2619,-5.2583,-5.2582,-5.258,-5.2579,0,-5.2296,-5.2282,-5.2393,-5.2407,-5.2413,-5.2491,-5.2503,-5.2563,-5.2555,-5.2637,-5.2654,-5.2643,-5.2708,-5.2688,-5.2758,-5.2746,-5.2872,-5.285,-5.2864,-5.2859,-5.295,-5.2942,-5.325,-5.3289,-5.3008,-5.301,-5.3013,0,-5.2434,-5.2508,-5.253,-5.257,-5.2587,-5.2651,-5.2687,-5.2656,-5.2696,-5.2732,-5.2788,-5.2848,-5.2895,-5.3002,-5.2999,-5.3052,-5.3031,-5.3136,-5.3039,-5.3048,-5.3033,-5.303,-5.3037,-5.3155,-5.3158,-5.3161,-5.3163,0,-5.2681,-5.267,-5.2725,-5.2778,-5.2822,-5.2862,-5.2896,-5.2931,-5.2903,-5.2949,-5.3016,-5.3052,-5.3124,-5.3185,-5.3233,-5.3243,-5.3199,-5.3193,-5.3217,-5.323,-5.3235,-5.3234,-5.2917,-5.3187,-5.3184,-5.3183,-5.3181,-5.3181,-5.2863,-5.2925,-5.2951,-5.3013,-5.3036,-5.3069,-5.3126,-5.3127,-5.3182,-5.3239,-5.3216,-5.3293,-5.3317,-5.3377,-5.3395,-5.3453,-5.3413,-5.3447,-5.3456,-5.3465,-5.3477,-5.3225,-5.3461,-5.346,-5.346,-5.3459,-5.3459,0,-5.3107,-5.312,-5.3178,-5.3229,-5.3277,-5.3231,-5.3267,-5.3311,-5.3379,-5.3406,-5.3453,-5.3529,-5.3587,-5.3589,-5.3643,-5.3689,-5.367,-5.3704,-5.3701,-5.3704,-5.351,-5.3484,-5.3719,-5.3719,-5.3719,-5.3719,-5.3719,-5.3719,-5.324,-5.3344,-5.3336,-5.3449,-5.346,-5.3536,-5.356,-5.359,-5.3611,-5.3699,-5.3748,-5.3748,-5.3765,-5.382,-5.3871,-5.3869,-5.3892,-5.3934,-5.3926,-5.3744,-5.3718,-5.3693,-5.3669,-5.3939,-5.394,-5.4115,-5.4117,-5.4118]}]]